| time (UTC) | temp C | wind direction | speed KPH | gust KPH | rain 1hr cm | rain 24hr cm | rain mn cm | humidity % | barometer mb |
| 20260905001602 | 16 | 282 | 1.6 | 4.8 | 0.00 | 0.08 | 0.08 | 76 | 1016.2 |
| 20260905000031 | 16 | 258 | 3.2 | 8.0 | 0.00 | 0.08 | 0.08 | 76 | 1016.2 |
| 20260904233106 | 16 | 266 | 3.2 | 8.0 | 0.00 | 0.08 | 0.08 | 74 | 1016.1 |
| 20260904231531 | 16 | 315 | 1.6 | 4.8 | 0.00 | 0.13 | 0.08 | 74 | 1016.1 |
| 20260904230030 | 16 | 10 | 3.2 | 8.0 | 0.00 | 0.15 | 0.08 | 74 | 1016.1 |
| 20260904224531 | 16 | 142 | 0.0 | 6.4 | 0.00 | 0.15 | 0.08 | 75 | 1016.1 |
| 20260904223041 | 16 | 127 | 4.8 | 9.7 | 0.00 | 0.15 | 0.08 | 77 | 1016.0 |
| 20260904221531 | 16 | 153 | 1.6 | 8.0 | 0.00 | 0.15 | 0.08 | 79 | 1016.0 |
| 20260904214534 | 16 | 114 | 1.6 | 4.8 | 0.00 | 0.15 | 0.08 | 79 | 1015.9 |
| 20260904213105 | 16 | 284 | 0.0 | 3.2 | 0.00 | 0.15 | 0.08 | 79 | 1015.8 |
| 20260904211533 | 16 | 215 | 0.0 | 4.8 | 0.00 | 0.15 | 0.08 | 81 | 1015.8 |
| 20260904210029 | 15 | 67 | 0.0 | 0.0 | 0.00 | 0.15 | 0.08 | 82 | 1015.6 |
| 20260904204533 | 15 | 70 | 0.0 | 4.8 | 0.00 | 0.15 | 0.08 | 82 | 1015.6 |
| 20260904203029 | 15 | 106 | 3.2 | 6.4 | 0.00 | 0.15 | 0.08 | 82 | 1015.6 |
| 20260904201529 | 15 | 108 | 1.6 | 6.4 | 0.00 | 0.15 | 0.08 | 80 | 1015.8 |
| 20260904200029 | 16 | 29 | 3.2 | 8.0 | 0.00 | 0.15 | 0.08 | 80 | 1015.7 |
| 20260904194532 | 15 | 47 | 3.2 | 9.7 | 0.00 | 0.15 | 0.08 | 83 | 1015.9 |
| 20260904193028 | 14 | 10 | 0.0 | 4.8 | 0.00 | 0.15 | 0.08 | 85 | 1016.0 |
| 20260904191605 | 13 | 356 | 1.6 | 6.4 | 0.00 | 0.15 | 0.08 | 86 | 1016.0 |
| 20260904190030 | 13 | 346 | 1.6 | 6.4 | 0.00 | 0.15 | 0.08 | 86 | 1016.1 |
| 20260904184606 | 13 | 99 | 0.0 | 4.8 | 0.00 | 0.15 | 0.08 | 88 | 1016.1 |
| 20260904181605 | 13 | 326 | 0.0 | 4.8 | 0.00 | 0.15 | 0.08 | 89 | 1015.9 |
| 20260904180028 | 13 | 236 | 0.0 | 4.8 | 0.00 | 0.15 | 0.08 | 92 | 1015.9 |
| 20260904173030 | 11 | 60 | 0.0 | 4.8 | 0.00 | 0.15 | 0.08 | 94 | 1015.8 |
| 20260904171606 | 11 | 67 | 1.6 | 4.8 | 0.00 | 0.15 | 0.08 | 94 | 1015.8 |
| 20260904164528 | 11 | 20 | 3.2 | 4.8 | 0.00 | 0.15 | 0.08 | 94 | 1015.8 |
| 20260904163033 | 12 | 27 | 1.6 | 6.4 | 0.00 | 0.15 | 0.08 | 95 | 1015.7 |
| 20260904161528 | 10 | 11 | 1.6 | 8.0 | 0.00 | 0.15 | 0.08 | 96 | 1015.6 |
| 20260904154530 | 9 | 238 | 0.0 | 4.8 | 0.00 | 0.15 | 0.08 | 96 | 1015.4 |
| 20260904153030 | 9 | 247 | 0.0 | 4.8 | 0.00 | 0.15 | 0.08 | 96 | 1015.3 |
| 20260904151533 | 9 | 255 | 1.6 | 4.8 | 0.00 | 0.15 | 0.08 | 96 | 1015.1 |
| 20260904150030 | 9 | 270 | 0.0 | 1.6 | 0.00 | 0.15 | 0.08 | 96 | 1014.9 |
| 20260904144531 | 8 | 270 | 0.0 | 0.0 | 0.00 | 0.15 | 0.08 | 96 | 1014.9 |
| 20260904141531 | 8 | 270 | 0.0 | 0.0 | 0.00 | 0.15 | 0.08 | 96 | 1014.6 |
| 20260904140032 | 8 | 270 | 0.0 | 0.0 | 0.03 | 0.15 | 0.08 | 96 | 1014.5 |
| 20260904134605 | 8 | 270 | 0.0 | 0.0 | 0.03 | 0.15 | 0.08 | 96 | 1014.3 |
| 20260904133030 | 8 | 270 | 0.0 | 0.0 | 0.03 | 0.15 | 0.08 | 96 | 1014.2 |
| 20260904131527 | 8 | 270 | 0.0 | 0.0 | 0.05 | 0.15 | 0.05 | 96 | 1014.1 |
| 20260904130031 | 8 | 270 | 0.0 | 0.0 | 0.03 | 0.13 | 0.05 | 96 | 1014.0 |
| 20260904123028 | 8 | 270 | 0.0 | 0.0 | 0.03 | 0.13 | 0.03 | 96 | 1013.9 |
| 20260904121528 | 8 | 270 | 0.0 | 0.0 | 0.00 | 0.10 | 0.03 | 96 | 1013.9 |
| 20260904120032 | 8 | 270 | 0.0 | 0.0 | 0.03 | 0.10 | 0.03 | 96 | 1013.8 |
| 20260904114531 | 8 | 270 | 0.0 | 0.0 | 0.03 | 0.10 | 0.03 | 96 | 1013.7 |
| 20260904113106 | 8 | 270 | 0.0 | 0.0 | 0.03 | 0.10 | 0.03 | 96 | 1013.5 |
| 20260904111530 | 8 | 270 | 0.0 | 0.0 | 0.03 | 0.10 | 0.00 | 96 | 1013.4 |
| 20260904110029 | 8 | 85 | 1.6 | 4.8 | 0.00 | 0.08 | 0.00 | 96 | 1013.2 |
| 20260904104527 | 8 | 110 | 0.0 | 3.2 | 0.00 | 0.08 | 0.00 | 96 | 1013.2 |
| 20260904100107 | 8 | 220 | 0.0 | 0.0 | 0.00 | 0.08 | 0.00 | 96 | 1012.8 |
| 20260904093029 | 8 | 156 | 0.0 | 4.8 | 0.00 | 0.08 | 0.00 | 96 | 1012.7 |
| 20260904091530 | 8 | 135 | 0.0 | 4.8 | 0.00 | 0.08 | 0.00 | 95 | 1012.7 |
| 20260904090029 | 8 | 135 | 0.0 | 0.0 | 0.00 | 0.10 | 0.00 | 95 | 1012.7 |
| 20260904084532 | 8 | 135 | 0.0 | 3.2 | 0.00 | 0.10 | 0.00 | 95 | 1012.7 |
| 20260904083146 | 8 | 146 | 0.0 | 3.2 | 0.00 | 0.10 | 0.00 | 95 | 1012.5 |
| 20260904080033 | 8 | 157 | 1.6 | 4.8 | 0.00 | 0.10 | 0.00 | 95 | 1012.6 |
| 20260904074530 | 8 | 154 | 0.0 | 4.8 | 0.00 | 0.10 | 0.00 | 95 | 1012.6 |
| 20260904073031 | 8 | 157 | 0.0 | 0.0 | 0.00 | 0.10 | 0.00 | 95 | 1012.6 |
| 20260904071530 | 8 | 157 | 0.0 | 3.2 | 0.00 | 0.10 | 0.00 | 95 | 1012.6 |
| 20260904064644 | 8 | 177 | 0.0 | 3.2 | 0.00 | 0.10 | 0.10 | 94 | 1012.5 |
| 20260904063031 | 8 | 202 | 0.0 | 3.2 | 0.00 | 0.10 | 0.10 | 94 | 1012.5 |
| 20260904061645 | 8 | 189 | 1.6 | 4.8 | 0.00 | 0.10 | 0.10 | 94 | 1012.5 |
| 20260904060108 | 8 | 180 | 0.0 | 0.0 | 0.00 | 0.10 | 0.10 | 94 | 1012.4 |
| 20260904053105 | 8 | 202 | 0.0 | 0.0 | 0.00 | 0.10 | 0.10 | 94 | 1012.4 |
| 20260904051531 | 8 | 195 | 0.0 | 3.2 | 0.00 | 0.10 | 0.10 | 93 | 1012.5 |
| 20260904050029 | 9 | 199 | 1.6 | 4.8 | 0.00 | 0.10 | 0.10 | 93 | 1012.5 |
| 20260904044608 | 9 | 202 | 0.0 | 0.0 | 0.00 | 0.10 | 0.10 | 93 | 1012.6 |
| 20260904043031 | 9 | 202 | 0.0 | 0.0 | 0.00 | 0.10 | 0.10 | 93 | 1012.6 |
| 20260904040030 | 10 | 195 | 1.6 | 3.2 | 0.00 | 0.10 | 0.10 | 92 | 1012.6 |
| 20260904033028 | 10 | 151 | 0.0 | 3.2 | 0.00 | 0.10 | 0.10 | 90 | 1012.3 |
| 20260904031530 | 10 | 173 | 1.6 | 6.4 | 0.00 | 0.10 | 0.10 | 89 | 1012.3 |
| 20260904030030 | 10 | 92 | 0.0 | 4.8 | 0.00 | 0.10 | 0.10 | 89 | 1012.1 |
| 20260904024531 | 10 | 13 | 1.6 | 8.0 | 0.00 | 0.10 | 0.10 | 88 | 1012.1 |
| 20260904023029 | 11 | 342 | 3.2 | 9.7 | 0.00 | 0.13 | 0.10 | 88 | 1011.9 |
| 20260904020104 | 12 | 22 | 1.6 | 6.4 | 0.00 | 0.30 | 0.10 | 88 | 1011.9 |
| 20260904014529 | 12 | 350 | 0.0 | 4.8 | 0.00 | 0.48 | 0.10 | 87 | 1011.9 |
| 20260904013031 | 12 | 350 | 3.2 | 8.0 | 0.00 | 0.48 | 0.10 | 87 | 1011.9 |
| 20260904011528 | 12 | 354 | 4.8 | 11.3 | 0.00 | 0.51 | 0.10 | 87 | 1011.8 |
| 20260904010033 | 12 | 18 | 6.4 | 14.5 | 0.00 | 0.53 | 0.10 | 87 | 1011.7 |
| 20260904004530 | 12 | 24 | 6.4 | 17.7 | 0.00 | 0.58 | 0.10 | 86 | 1011.7 |
| 20260904003033 | 12 | 341 | 4.8 | 12.9 | 0.00 | 0.61 | 0.10 | 86 | 1011.6 |